Location: Limoges
(45.8354°N, 1.2645°E)
Time: 12:15:10
(UTC+01:00)

ISS - Visible Passes

Search period start: 15 February 2026 00:00
Search period end: 25 February 2026 00:00
Orbit: 413 x 428 km, 51.6° (Epoch: 14 February)

Date Brightness Start Highest point End Pass type
(mag) Time Alt. Az. Time Alt. Az. Time Alt. Az.
15 Feb -1.3 05:36:22 18° SE 05:36:28 18° SE 05:38:49 10° E visible
15 Feb -3.8 07:09:37 10° WSW 07:12:58 78° NNW 07:16:18 10° ENE visible
16 Feb -3.6 06:24:33 33° SW 06:25:53 71° SSE 06:29:13 10° ENE visible
17 Feb -2.3 05:39:35 37° ESE 05:39:35 37° ESE 05:42:03 10° ENE visible
17 Feb -3.1 07:12:35 10° W 07:15:43 41° NNW 07:18:55 10° NE visible
18 Feb -0.3 04:54:30 12° E 04:54:30 12° E 04:54:46 10° ENE visible
18 Feb -3.5 06:27:30 36° WNW 06:28:32 54° NNW 06:31:49 10° ENE visible
19 Feb -2.7 05:42:19 43° NE 05:42:19 43° NE 05:44:43 10° ENE visible
19 Feb -2.6 07:15:31 10° WNW 07:18:32 30° N 07:21:33 10° ENE visible
20 Feb -0.5 04:57:04 14° ENE 04:57:04 14° ENE 04:57:33 10° ENE visible
20 Feb -2.8 06:30:03 25° NW 06:31:15 34° NNW 06:34:22 10° NE visible
21 Feb -2.5 05:44:44 35° NNE 05:44:44 35° NNE 05:47:12 10° NE visible
22 Feb -0.7 04:59:22 15° NE 04:59:22 15° NE 05:00:02 10° ENE visible
22 Feb -2.4 06:32:21 19° NW 06:34:01 29° N 06:37:00 10° ENE visible
23 Feb -2.3 05:46:57 30° N 05:46:57 30° N 05:49:42 10° ENE visible
24 Feb -0.8 05:01:33 16° NE 05:01:33 16° NE 05:02:27 10° NE visible
24 Feb -2.4 06:34:31 15° NW 06:36:44 31° N 06:39:47 10° ENE visible
